DW3219 Weather Reports


Display with metric or nautical units.
time (UTC)temp
F
wind
direction
speed
MPH
gust
MPH
rain 1hr
in
rain 24hr
in
rain mn
in
humidity
%
barometer
mb
20260831013022 73 30 0.0 0.0 0.00 0.00 0.00 40 1006.2
20260831011518 76 355 0.0 0.0 0.00 0.00 0.00 35 1006.0
20260831010030 77 309 0.0 0.0 0.00 0.00 0.00 32 1005.9
20260831004517 77 309 0.0 0.0 0.00 0.00 0.00 31 1005.9
20260831003016 77 314 0.0 0.0 0.00 0.00 0.00 32 1005.9
20260831001516 78 305 0.0 0.0 0.00 0.00 0.00 31 1005.9
20260831000014 78 289 0.0 0.0 0.00 0.00 0.00 32 1005.9
20260830234505 78 329 0.0 4.0 0.00 0.00 0.00 33 1005.8
20260830233004 78 276 0.0 1.0 0.00 0.00 0.00 33 1005.7
20260830231504 79 273 0.0 5.0 0.00 0.00 0.00 30 1005.8
20260830230002 77 307 0.0 9.0 0.00 0.00 0.00 32 1005.7
20260830224607 77 276 0.0 6.0 0.00 0.00 0.00 34 1005.7
20260830223105 77 281 1.0 8.0 0.00 0.00 0.00 36 1005.7
20260830221619 77 306 0.0 4.0 0.00 0.00 0.00 33 1005.8
20260830220046 78 244 0.0 3.0 0.00 0.00 0.00 33 1005.8
20260830214544 76 126 0.0 4.0 0.00 0.00 0.00 35 1005.6
20260830213044 76 199 0.0 2.0 0.00 0.00 0.00 34 1005.7
20260830211539 76 161 1.0 5.0 0.00 0.00 0.00 35 1006.0
20260830210038 75 221 0.0 3.0 0.00 0.00 0.00 37 1006.1
20260830204542 74 215 0.0 6.0 0.00 0.00 0.00 37 1006.1
20260830203048 73 146 1.0 8.0 0.00 0.00 0.00 40 1006.2
20260830201538 72 96 0.0 5.0 0.00 0.00 0.00 42 1006.3
20260830200024 71 39 0.0 1.0 0.00 0.00 0.00 45 1006.2
20260830194517 71 69 2.0 9.0 0.00 0.00 0.00 47 1006.2
20260830193110 71 90 1.0 8.0 0.00 0.00 0.00 45 1006.3
20260830191605 70 89 1.0 7.0 0.00 0.00 0.00 48 1006.6
20260830190048 70 69 0.0 6.0 0.00 0.00 0.00 43 1006.7
20260830184547 66 360 1.0 13.0 0.00 0.00 0.00 49 1006.5
20260830183045 65 346 7.0 16.0 0.00 0.00 0.00 55 1006.9
20260830181545 67 323 3.0 18.0 0.00 0.00 0.00 52 1007.5
20260830180053 65 263 0.0 0.0 0.00 0.00 0.00 57 1007.0
20260830174553 63 317 0.0 18.0 0.00 0.00 0.00 62 1007.2
20260830173059 62 297 5.0 23.0 0.00 0.00 0.00 63 1007.3
20260830171545 62 294 14.0 33.0 0.00 0.00 0.00 62 1007.3
20260830170033 65 290 19.0 38.0 0.00 0.00 0.00 53 1007.1
20260830164544 71 292 2.0 10.0 0.00 0.00 0.00 50 1006.4
20260830163022 70 310 0.0 6.0 0.00 0.00 0.00 54 1005.5
20260830161522 70 288 0.0 0.0 0.00 0.00 0.00 57 1005.3
20260830160020 69 267 0.0 6.0 0.00 0.00 0.00 57 1005.1
20260830154526 68 263 0.0 5.0 0.00 0.00 0.00 60 1005.1
20260830153019 67 271 0.0 0.0 0.00 0.00 0.00 61 1005.1
20260830151519 67 282 0.0 2.0 0.00 0.00 0.00 63 1005.5
20260830150006 66 279 0.0 0.0 0.00 0.00 0.00 66 1005.2
20260830144508 63 273 0.0 0.0 0.00 0.00 0.00 69 1005.1
20260830143006 61 269 0.0 0.0 0.00 0.00 0.00 75 1005.3
20260830141505 59 270 0.0 0.0 0.00 0.00 0.00 79 1005.4
20260830140004 59 308 0.0 0.0 0.00 0.00 0.00 80 1005.2
20260830134509 59 308 0.0 0.0 0.00 0.00 0.00 79 1005.4
20260830133009 58 256 0.0 0.0 0.00 0.00 0.00 81 1005.2
20260830131507 57 256 0.0 0.0 0.00 0.00 0.00 83 1005.2
20260830130053 56 255 0.0 0.0 0.00 0.00 0.00 84 1005.0
20260830124551 56 255 0.0 0.0 0.00 0.00 0.00 84 1005.0
20260830123049 57 256 0.0 1.0 0.00 0.00 0.00 82 1005.0
20260830121545 58 253 0.0 0.0 0.00 0.00 0.00 81 1004.8
20260830120046 58 241 0.0 3.0 0.00 0.00 0.00 80 1004.6
20260830114541 59 200 0.0 0.0 0.00 0.00 0.00 79 1004.6
20260830113040 59 201 0.0 2.0 0.00 0.00 0.00 79 1004.4
20260830111539 60 96 0.0 0.0 0.00 0.00 0.00 79 1003.9
20260830110021 60 91 0.0 0.0 0.00 0.00 0.00 78 1003.9
20260830104520 60 94 0.0 0.0 0.00 0.00 0.00 79 1004.1
20260830103011 60 83 0.0 0.0 0.00 0.00 0.00 78 1004.0
20260830101507 60 68 0.0 0.0 0.00 0.00 0.00 78 1004.3
20260830100006 60 262 0.0 0.0 0.00 0.00 0.00 78 1004.5
20260830094506 61 264 0.0 13.0 0.00 0.00 0.00 77 1005.4
20260830093002 61 271 0.0 0.0 0.00 0.00 0.00 77 1004.4
20260830091502 61 271 0.0 0.0 0.00 0.00 0.00 78 1004.5
20260830090100 61 271 0.0 0.0 0.00 0.00 0.00 77 1004.4
20260830084600 62 267 0.0 0.0 0.00 0.00 0.00 77 1004.4
20260830083101 62 234 0.0 0.0 0.00 0.00 0.00 76 1004.3
20260830081550 62 234 0.0 0.0 0.00 0.00 0.00 77 1004.2
20260830080048 62 234 0.0 0.0 0.00 0.00 0.00 77 1004.3
20260830074544 62 234 0.0 0.0 0.00 0.00 0.00 76 1004.4
20260830073047 63 234 0.0 0.0 0.00 0.00 0.00 75 1004.5
20260830071540 64 236 0.0 1.0 0.00 0.00 0.00 74 1004.4
20260830070039 64 229 0.0 0.0 0.00 0.00 0.00 73 1004.4
20260830064536 65 229 0.0 0.0 0.00 0.00 0.00 72 1004.4
20260830063036 65 229 0.0 1.0 0.00 0.00 0.00 72 1004.4
20260830061518 65 224 0.0 0.0 0.00 0.00 0.00 72 1004.8
20260830060015 67 246 0.0 0.0 0.00 0.00 0.00 68 1004.9
20260830054502 68 245 0.0 2.0 0.00 0.00 0.00 64 1004.6
20260830053001 68 207 0.0 6.0 0.00 0.00 0.00 63 1004.7
20260830051501 68 268 0.0 5.0 0.00 0.00 0.00 64 1004.8
20260830050100 68 190 0.0 6.0 0.00 0.00 0.00 65 1004.6
20260830044603 68 184 0.0 3.0 0.00 0.00 0.00 65 1004.5
20260830043107 68 134 0.0 3.0 0.00 0.00 0.00 66 1004.5
20260830041611 66 159 0.0 2.0 0.00 0.00 0.00 70 1004.5
20260830040104 66 88 0.0 0.0 0.00 0.00 0.00 71 1004.7
20260830034539 67 87 0.0 1.0 0.00 0.00 0.00 69 1004.5
20260830033036 67 88 0.0 0.0 0.00 0.00 0.00 67 1004.3
20260830031517 68 86 0.0 0.0 0.00 0.00 0.00 66 1004.1
20260830030013 69 111 0.0 3.0 0.00 0.00 0.00 63 1003.9
20260830024556 71 193 0.0 0.0 0.00 0.00 0.00 59 1003.8
20260830023107 72 195 0.0 1.0 0.00 0.00 0.00 58 1003.5
20260830021555 72 180 0.0 3.0 0.00 0.00 0.00 58 1003.3
20260830020054 72 177 0.0 2.0 0.00 0.00 0.00 56 1003.1
20260830014552 73 177 0.0 2.0 0.00 0.00 0.00 55 1003.2